• In Hungary
  • List of Countries
  • For 7 days
  • Water Temperature
  • Satellite Maps
  • Weather Map
  • News
  • Weather Widgets
  • user-avatar
    Login

    Hourly Weather Kaprun

    Today, 16 December, Saturday

    Time Temperature Precipitation Wind Pressure Humidity
    00:00 -12°C° 0.3 mm 2 mps 582 mmHg 94%
    01:00 -10°C° 0 mm 2 mps 582 mmHg 93%
    02:00 -12°C° 0.2 mm 2 mps 582 mmHg 93%
    03:00 -12°C° 0.2 mm 2 mps 582 mmHg 93%
    04:00 -12°C° 0.2 mm 2 mps 582 mmHg 93%
    05:00 -13°C° 0.1 mm 2 mps 582 mmHg 92%
    06:00 -14°C° 0.1 mm 2 mps 582 mmHg 91%
    07:00 -14°C° 0.1 mm 2 mps 582 mmHg 91%
    08:00 -13°C° 0 mm 2 mps 583 mmHg 89%
    09:00 -13°C° 0 mm 2 mps 584 mmHg 88%
    10:00 -12°C° 0 mm 2 mps 585 mmHg 87%
    11:00 -9°C° 0.1 mm 1 mps 586 mmHg 85%
    12:00 -8°C° 0.1 mm 1 mps 586 mmHg 84%
    13:00 -7°C° 0.1 mm 1 mps 587 mmHg 82%
    14:00 -7°C° 0.2 mm 1 mps 587 mmHg 86%
    15:00 -8°C° 0.2 mm 1 mps 587 mmHg 89%
    16:00 -9°C° 0.2 mm 1 mps 587 mmHg 93%
    17:00 -9°C° 0.3 mm 1 mps 588 mmHg 93%
    18:00 -12°C° 0.3 mm 2 mps 588 mmHg 94%
    19:00 -12°C° 0.3 mm 2 mps 588 mmHg 94%
    20:00 -12°C° 0.5 mm 2 mps 589 mmHg 94%
    21:00 -12°C° 0.5 mm 2 mps 590 mmHg 95%
    22:00 -12°C° 0.5 mm 2 mps 590 mmHg 95%
    23:00 -12°C° 0.3 mm 2 mps 590 mmHg 95%

    Tomorrow, 17 December, Sunday

    Time Temperature Precipitation Wind Pressure Humidity
    00:00 -12°C° 0.3 mm 2 mps 590 mmHg 95%
    01:00 -12°C° 0.3 mm 2 mps 591 mmHg 95%
    02:00 -13°C° 0.2 mm 2 mps 591 mmHg 94%
    03:00 -13°C° 0.2 mm 2 mps 591 mmHg 94%
    04:00 -14°C° 0.2 mm 2 mps 591 mmHg 94%
    05:00 -14°C° 0.3 mm 2 mps 591 mmHg 94%
    06:00 -14°C° 0.3 mm 2 mps 591 mmHg 94%
    07:00 -14°C° 0.3 mm 2 mps 591 mmHg 94%
    08:00 -13°C° 0.3 mm 2 mps 592 mmHg 93%
    09:00 -13°C° 0.3 mm 2 mps 592 mmHg 93%
    10:00 -12°C° 0.3 mm 2 mps 593 mmHg 92%
    11:00 -12°C° 0.4 mm 2 mps 593 mmHg 91%
    12:00 -12°C° 0.4 mm 2 mps 593 mmHg 90%
    13:00 -10°C° 0.4 mm 2 mps 594 mmHg 89%
    14:00 -12°C° 0.6 mm 2 mps 594 mmHg 90%
    15:00 -12°C° 0.6 mm 2 mps 594 mmHg 92%
    16:00 -12°C° 0.6 mm 2 mps 594 mmHg 93%
    17:00 -13°C° 0.4 mm 2 mps 594 mmHg 93%
    18:00 -13°C° 0.4 mm 2 mps 595 mmHg 93%
    19:00 -14°C° 0.4 mm 2 mps 595 mmHg 93%
    20:00 -14°C° 0.2 mm 2 mps 595 mmHg 93%
    21:00 -14°C° 0.2 mm 2 mps 595 mmHg 93%
    22:00 -15°C° 0.2 mm 2 mps 596 mmHg 93%
    23:00 -15°C° 0.1 mm 2 mps 595 mmHg 93%

    Day after tomorrow, 18 December, Monday

    Time Temperature Precipitation Wind Pressure Humidity
    00:00 -16°C° 0.1 mm 2 mps 595 mmHg 92%
    01:00 -17°C° 0.1 mm 2 mps 595 mmHg 92%
    02:00 -17°C° 0 mm 2 mps 594 mmHg 91%
    03:00 -18°C° 0 mm 2 mps 594 mmHg 90%
    04:00 -18°C° 0 mm 2 mps 594 mmHg 88%
    05:00 -18°C° 0 mm 2 mps 594 mmHg 86%
    06:00 -17°C° 0 mm 2 mps 594 mmHg 84%
    07:00 -16°C° 0 mm 2 mps 594 mmHg 82%
    08:00 -13°C° 0.1 mm 1 mps 594 mmHg 84%
    09:00 -12°C° 0.1 mm 1 mps 594 mmHg 85%
    10:00 -11°C° 0.1 mm 1 mps 595 mmHg 87%
    11:00 -10°C° 0.6 mm 1 mps 594 mmHg 88%
    12:00 -9°C° 0.6 mm 1 mps 594 mmHg 90%
    13:00 -9°C° 0.6 mm 1 mps 594 mmHg 92%
    14:00 -9°C° 0.7 mm 1 mps 594 mmHg 93%
    15:00 -8°C° 0.7 mm 1 mps 594 mmHg 94%
    16:00 -8°C° 0.7 mm 1 mps 594 mmHg 95%
    17:00 -9°C° 0.3 mm 1 mps 595 mmHg 95%
    18:00 -9°C° 0.3 mm 1 mps 595 mmHg 95%
    19:00 -10°C° 0.3 mm 2 mps 596 mmHg 95%
    20:00 -10°C° 0.2 mm 2 mps 596 mmHg 95%
    21:00 -10°C° 0.2 mm 2 mps 597 mmHg 95%
    22:00 -12°C° 0.2 mm 2 mps 597 mmHg 95%
    23:00 -12°C° 0.3 mm 2 mps 597 mmHg 95%

    19 December, Tuesday

    Time Temperature Precipitation Wind Pressure Humidity
    00:00 -12°C° 0.3 mm 2 mps 598 mmHg 95%
    01:00 -12°C° 0.3 mm 2 mps 598 mmHg 95%
    02:00 -12°C° 0.3 mm 2 mps 598 mmHg 95%
    03:00 -12°C° 0.3 mm 2 mps 599 mmHg 95%
    04:00 -12°C° 0.3 mm 2 mps 599 mmHg 95%
    05:00 -12°C° 0.2 mm 2 mps 599 mmHg 94%
    06:00 -12°C° 0.2 mm 2 mps 599 mmHg 94%
    07:00 -12°C° 0.2 mm 2 mps 600 mmHg 94%
    08:00 -12°C° 0.2 mm 2 mps 600 mmHg 94%
    09:00 -10°C° 0.2 mm 2 mps 601 mmHg 93%
    10:00 -9°C° 0.2 mm 2 mps 601 mmHg 93%
    11:00 -9°C° 0.2 mm 2 mps 601 mmHg 92%
    12:00 -8°C° 0.2 mm 2 mps 602 mmHg 91%
    13:00 -8°C° 0.2 mm 2 mps 602 mmHg 90%
    14:00 -8°C° 0.2 mm 2 mps 601 mmHg 92%
    15:00 -9°C° 0.2 mm 2 mps 601 mmHg 93%
    16:00 -9°C° 0.2 mm 2 mps 601 mmHg 95%
    17:00 -10°C° 0.2 mm 2 mps 601 mmHg 95%
    18:00 -12°C° 0.2 mm 2 mps 601 mmHg 95%
    19:00 -13°C° 0.2 mm 2 mps 601 mmHg 95%
    20:00 -13°C° 0.1 mm 2 mps 601 mmHg 95%
    21:00 -13°C° 0.1 mm 2 mps 601 mmHg 94%
    22:00 -13°C° 0.1 mm 2 mps 602 mmHg 94%
    23:00 -14°C° 0.1 mm 2 mps 602 mmHg 93%

    20 December, Wednesday

    Time Temperature Precipitation Wind Pressure Humidity
    00:00 -14°C° 0.1 mm 2 mps 601 mmHg 93%
    01:00 -14°C° 0.1 mm 2 mps 601 mmHg 93%
    02:00 -15°C° 0 mm 2 mps 601 mmHg 92%
    03:00 -15°C° 0 mm 2 mps 601 mmHg 91%
    04:00 -15°C° 0 mm 2 mps 601 mmHg 90%
    05:00 -15°C° 0 mm 2 mps 601 mmHg 88%
    06:00 -15°C° 0 mm 2 mps 601 mmHg 87%
    07:00 -15°C° 0 mm 2 mps 601 mmHg 86%
    08:00 -13°C° 0 mm 2 mps 602 mmHg 85%
    09:00 -12°C° 0 mm 2 mps 603 mmHg 84%
    10:00 -10°C° 0 mm 2 mps 604 mmHg 84%
    11:00 -8°C° 0.1 mm 2 mps 604 mmHg 85%
    12:00 -7°C° 0.1 mm 2 mps 604 mmHg 85%
    13:00 -6°C° 0.1 mm 2 mps 604 mmHg 86%
    14:00 -6°C° 0.3 mm 2 mps 604 mmHg 88%
    15:00 -7°C° 0.3 mm 2 mps 604 mmHg 90%
    16:00 -7°C° 0.3 mm 2 mps 604 mmHg 92%
    17:00 -7°C° 0.4 mm 2 mps 604 mmHg 93%
    18:00 -7°C° 0.4 mm 2 mps 604 mmHg 93%
    19:00 -7°C° 0.4 mm 2 mps 604 mmHg 93%
    20:00 -6°C° 0.3 mm 2 mps 605 mmHg 93%
    21:00 -6°C° 0.3 mm 2 mps 605 mmHg 93%
    22:00 -6°C° 0.3 mm 2 mps 605 mmHg 93%
    23:00 -6°C° 0.3 mm 2 mps 605 mmHg 93%

    21 December, Thursday

    Time Temperature Precipitation Wind Pressure Humidity
    00:00 -5°C° 0.3 mm 2 mps 605 mmHg 93%
    01:00 -5°C° 0.3 mm 2 mps 605 mmHg 94%
    02:00 -5°C° 0.3 mm 2 mps 605 mmHg 94%
    03:00 -5°C° 0.3 mm 2 mps 605 mmHg 94%
    04:00 -5°C° 0.3 mm 2 mps 605 mmHg 94%
    05:00 -5°C° 0.4 mm 2 mps 605 mmHg 94%
    06:00 -5°C° 0.4 mm 2 mps 605 mmHg 94%
    07:00 -4°C° 0.4 mm 2 mps 605 mmHg 94%
    08:00 -4°C° 0.4 mm 2 mps 605 mmHg 94%
    09:00 -4°C° 0.4 mm 2 mps 606 mmHg 95%
    10:00 -3°C° 0.4 mm 2 mps 606 mmHg 95%
    11:00 -3°C° 0.4 mm 2 mps 606 mmHg 96%
    12:00 -3°C° 0.4 mm 2 mps 605 mmHg 97%
    13:00 -2°C° 0.4 mm 2 mps 605 mmHg 97%
    14:00 -3°C° 0.5 mm 2 mps 605 mmHg 97%
    15:00 -3°C° 0.5 mm 2 mps 605 mmHg 96%
    16:00 -3°C° 0.5 mm 2 mps 605 mmHg 96%
    17:00 -3°C° 0.3 mm 2 mps 605 mmHg 95%
    18:00 -3°C° 0.3 mm 2 mps 605 mmHg 95%
    19:00 -3°C° 0.3 mm 2 mps 605 mmHg 94%
    20:00 -4°C° 0.1 mm 2 mps 605 mmHg 94%
    21:00 -4°C° 0.1 mm 2 mps 605 mmHg 94%
    22:00 -4°C° 0.1 mm 2 mps 604 mmHg 94%
    23:00 -5°C° 0.2 mm 2 mps 604 mmHg 94%
    Show more